sat.trackr.live / text

‹ back to catalog

ELEKTRO-L 2

NORAD 41105 · 2015-074A

PAYLOAD ACTIVE UNKNOWN

§ Identity

Operator
Country
CIS
Launch date
2015-12-11
Launch site
TYMSC
Launch vehicle
Mass (kg)
RCS (m²)
0.00

Purposes: comms, earth_obs

External: N2YO · Heavens-Above · Gunter

§ Orbital elements

Epoch: 2026-09-19T18:36:28.595808Z

Period
1,436.08 min
Inclination
6.9259°
Eccentricity
0.0001609
Mean motion
1.00272630 rev/d
Perigee alt
35,779.6 km
Apogee alt
35,793.1 km
Semi-major
42,164.5 km
B*
0.0000e+0
RAAN
69.3210°
Arg perigee
194.3390°
Mean anomaly
359.6378°
Rev number
3,945

§ Raw data

ELEKTRO-L 21 41105U 15074A   26262.77533097 -.00000119  00000+0  00000+0 0  99972 41105   6.9259  69.3210 0001609 194.3390 359.6378  1.00272630 39453

JSON: /api/v1/satellites/41105 · /tle

For live sub-satellite position, see the globe view (requires WebGL).

§ Visibility from observer

Set your observer location to see the next 7 days of passes ≥ 10°. The values pass through the URL so the page stays shareable.

No JS? Fill the form by hand. The geolocation button needs JavaScript.

§ Radio — SatNOGS DB

ModeDescriptionDownlinkUplink
FM 7502 LHCP 7.502 GHz
FSK GGAK-E 2 (665400 bd) 1.693 GHz
FM SARSAT - L-Band 1.545 GHz

3 transmitters · refreshed weekly from db.satnogs.org